Location: Prague
(50.0830°N, 14.4670°E)
Time: 03:22:04
(UTC+02:00)

FO-29 - Pass Details

Date: 03 April 2023
Orbit: 799 x 1322 km, 98.5° (Epoch: 29 May)

Event Time Altitude Azimuth Distance (km) Brightness Sun altitude
Rises 04:05:34 0° 24° (NNE) 4,265 13.9 -22.5°
Reaches altitude 10° 04:10:05 10° 48° (NE) 3,214 13.4 -22.0°
Maximum altitude 04:13:45 14° 78° (ENE) 2,816 12.7 -21.5°
Drops below altitude 10° 04:17:16 10° 108° (ESE) 3,038 12.5 -21.1°
Sets 04:21:16 0° 133° (SE) 3,878 12.8 -20.5°
